Weather in Uz

Uzbekistan     38°56′30″N   66°50′52″E
temp.,
°C
wind,
m/s
gust,
m/s
humid.,
%
clouds,
%
prec.,
mm/h
press.,
hPa
HPBL,
m
5 december, sun
sun523:00+6ssw225180 0.0 102430
02:00+6w115388 0.0 102428
05:00+5wsw1157100 0.0 102437
08:00+3se11655 0.0 102510
11:00+7wnw215174 0.0 1025462
14:00+9wnw224878 0.0 1023873
17:00+8nw225410 0.0 102214
20:00+6ne11622 0.0 102310
6 december, mon
mon623:00+5ene11650 0.0 102310
02:00+5e22650 0.0 102316
05:00+5e22610 0.0 102212
08:00+6e22570 0.0 102211
11:00+13ne33300 0.0 1020380
14:00+17nnw222061 0.0 1018914
17:00+13n2227100 0.0 101814
20:00+12e2225100 0.0 101914
7 december, tue
tue723:00+12e2224100 0.0 102011
02:00+11e1220100 0.0 102011
05:00+11ene1118100 0.0 102110
08:00+11s1119100 0.0 102311
11:00+15wsw2214100 0.0 1024319
14:00+17wsw2316100 0.0 1023855
17:00+13wsw332796 0.0 102440
20:00+10s223664 0.0 102612
8 december, wed
wed823:00+9ene014226 0.0 102710
02:00+8ssw004620 0.0 102810
05:00+7e11485 0.0 102810
08:00+6e11475 0.0 102910
11:00+11wnw11355 0.0 1029343
14:00+14nw213192 0.0 1027898
17:00+11nnw22362 0.0 102711
20:00+9e11420 0.0 102810
9 december, thu
thu923:00+8ene12420 0.0 102810
02:00+8e22400 0.0 102810
05:00+8e22360 0.0 102712
08:00+8e23310 0.0 102717
11:00+15ene23170 0.0 1026305
14:00+19nnw11120 0.0 1023755
17:00+14nw11180 0.0 102311
20:00+11e33240 0.0 102317